{"data":{"norad_id":56791,"intl_designator":"2023-078AA","name":"STARLINK-5977","alt_names":[],"object_type":"PAYLOAD","status":"ACTIVE","operator":null,"country":"US","launch_date":"2023-05-31","launch_site_code":"AFWTR","launch_vehicle":null,"mission":null,"orbit_class":"UNKNOWN","rcs_meters":null,"size_class":null,"mass_kg":null,"dimensions":null,"purposes":["comms"],"wikipedia_slug":null,"has_3d_model":false,"image_url":null,"decayed_at":null,"tle_current":{"epoch":"2026-09-20T13:38:04.464672Z","epoch_age_seconds":109034,"freshness":"FRESH","line1":"1 56791U 23078AA  26263.56810723 -.00000134  00000+0 -34126-5 0  9999","line2":"2 56791  69.9996 212.9976 0003146 270.0390  90.0408 14.98331707181878","mean_motion":14.98331707,"eccentricity":0.0003146,"inclination_deg":69.9996,"raan_deg":212.9976,"arg_perigee_deg":270.039,"mean_anomaly_deg":90.0408,"bstar":-3.4126e-6,"rev_number":18187,"period_min":96.106889634152,"perigee_km":569.86408316994,"apogee_km":574.23714121553,"semimajor_km":6950.1876121927,"source":"CELESTRAK","updated_at":"2026-09-21T09:00:33.507889Z"}}}